Year,Month,Day,Hour,Minute,Value (Times are PST for temperature in C)
2014,09,15,09,03,15.70
2014,09,15,09,04,15.80
2014,09,15,09,05,15.80
2014,09,15,09,06,15.80
2014,09,15,09,07,15.80
2014,09,15,09,08,15.80
2014,09,15,09,09,15.90
2014,09,15,09,10,16.00
2014,09,15,09,11,16.10
2014,09,15,09,12,16.20
2014,09,15,09,13,16.30
2014,09,15,09,14,16.40
2014,09,15,09,15,16.40
2014,09,15,09,16,16.40
2014,09,15,09,17,16.40
2014,09,15,09,18,16.40
2014,09,15,09,19,16.30
2014,09,15,09,20,16.20
2014,09,15,09,21,16.20
2014,09,15,09,22,16.20
2014,09,15,09,23,16.10
2014,09,15,09,24,16.10
2014,09,15,09,25,16.10
2014,09,15,09,26,16.10
2014,09,15,09,27,16.10
2014,09,15,09,28,16.10
2014,09,15,09,29,16.10
2014,09,15,09,30,16.10
2014,09,15,09,31,16.00
2014,09,15,09,32,15.90
2014,09,15,09,33,15.70
2014,09,15,09,34,15.50
2014,09,15,09,35,15.40
2014,09,15,09,36,15.30
2014,09,15,09,37,15.20
2014,09,15,09,38,15.10
2014,09,15,09,39,15.10
2014,09,15,09,40,15.10
2014,09,15,09,41,15.10
2014,09,15,09,42,15.20
2014,09,15,09,43,15.30
2014,09,15,09,44,15.30
2014,09,15,09,45,15.40
2014,09,15,09,46,15.50
2014,09,15,09,47,15.60
2014,09,15,09,48,15.70
2014,09,15,09,49,15.80
2014,09,15,09,50,15.80
2014,09,15,09,51,15.90
2014,09,15,09,52,16.00
2014,09,15,09,53,16.10
2014,09,15,09,54,16.10
2014,09,15,09,55,16.10
2014,09,15,09,56,16.20
2014,09,15,09,57,16.30
2014,09,15,09,58,16.30
2014,09,15,09,59,16.40
2014,09,15,10,00,16.40
2014,09,15,10,01,16.50
2014,09,15,10,02,16.60
2014,09,15,10,03,16.60
2014,09,15,10,04,16.60
2014,09,15,10,05,16.60
2014,09,15,10,06,16.50
2014,09,15,10,07,16.40
2014,09,15,10,08,16.40
2014,09,15,10,09,16.40
2014,09,15,10,10,16.40
2014,09,15,10,11,16.40
2014,09,15,10,12,16.30
2014,09,15,10,13,16.30
2014,09,15,10,14,16.40
2014,09,15,10,15,16.30
2014,09,15,10,16,16.30
2014,09,15,10,17,16.20
2014,09,15,10,18,16.10
2014,09,15,10,19,16.10
2014,09,15,10,20,16.10
2014,09,15,10,21,16.10
2014,09,15,10,22,16.10
2014,09,15,10,23,16.10
2014,09,15,10,24,16.10
2014,09,15,10,25,16.10
2014,09,15,10,26,16.10
2014,09,15,10,27,16.10
2014,09,15,10,28,16.10
2014,09,15,10,29,16.10
2014,09,15,10,30,16.10
2014,09,15,10,31,16.00
2014,09,15,10,32,15.90
2014,09,15,10,33,15.90
2014,09,15,10,34,15.80
2014,09,15,10,35,15.80
2014,09,15,10,36,15.60
2014,09,15,10,37,15.60
2014,09,15,10,38,15.60
2014,09,15,10,39,15.50
2014,09,15,10,40,15.40
2014,09,15,10,41,15.40
2014,09,15,10,42,15.50
2014,09,15,10,43,15.50
2014,09,15,10,44,15.40
2014,09,15,10,45,15.40
2014,09,15,10,46,15.40
2014,09,15,10,47,15.40
2014,09,15,10,48,15.40
2014,09,15,10,49,15.40
2014,09,15,10,50,15.40
2014,09,15,10,51,15.50
2014,09,15,10,52,15.50
2014,09,15,10,53,15.50
2014,09,15,10,54,15.50
2014,09,15,10,55,15.50
2014,09,15,10,56,15.40
2014,09,15,10,57,15.40
2014,09,15,10,58,15.40
2014,09,15,10,59,15.40
2014,09,15,11,00,15.40
2014,09,15,11,01,15.40
2014,09,15,11,02,15.40
2014,09,15,11,03,15.40
2014,09,15,11,04,15.40
2014,09,15,11,05,15.40
2014,09,15,11,06,15.30
2014,09,15,11,07,15.30
2014,09,15,11,08,15.30
2014,09,15,11,09,15.30
2014,09,15,11,10,15.20
2014,09,15,11,11,15.10
2014,09,15,11,12,15.10
2014,09,15,11,13,15.20
2014,09,15,11,14,15.20
2014,09,15,11,15,15.30
2014,09,15,11,16,15.20
2014,09,15,11,17,15.20
2014,09,15,11,18,15.30
2014,09,15,11,19,15.40
2014,09,15,11,20,15.50
2014,09,15,11,21,15.60
2014,09,15,11,22,15.70
2014,09,15,11,23,15.90
2014,09,15,11,24,16.00
2014,09,15,11,25,16.10
2014,09,15,11,26,16.10
2014,09,15,11,27,15.90
2014,09,15,11,28,15.80
2014,09,15,11,29,15.80
2014,09,15,11,30,15.80
2014,09,15,11,31,15.80
2014,09,15,11,32,15.70
2014,09,15,11,33,15.60
2014,09,15,11,34,15.60
2014,09,15,11,35,15.50
2014,09,15,11,36,15.60
2014,09,15,11,37,15.60
2014,09,15,11,38,15.80
2014,09,15,11,39,15.80
2014,09,15,11,40,15.80
2014,09,15,11,41,15.80
2014,09,15,11,42,15.80
2014,09,15,11,43,15.80
2014,09,15,11,44,15.90
2014,09,15,11,45,15.90
2014,09,15,11,46,15.80
2014,09,15,11,47,15.80
2014,09,15,11,48,15.80
2014,09,15,11,49,15.80
2014,09,15,11,50,15.80
2014,09,15,11,51,15.90
2014,09,15,11,52,15.90
2014,09,15,11,53,15.90
2014,09,15,11,54,15.90
2014,09,15,11,55,15.80
2014,09,15,11,56,15.80
2014,09,15,11,57,15.80
2014,09,15,11,58,15.70
2014,09,15,11,59,15.70
2014,09,15,12,00,15.80
2014,09,15,12,01,15.80
2014,09,15,12,02,15.80
2014,09,15,12,03,15.80
2014,09,15,12,04,15.80
2014,09,15,12,05,15.90
2014,09,15,12,06,15.90
2014,09,15,12,07,15.80
2014,09,15,12,08,16.00
2014,09,15,12,09,16.10
2014,09,15,12,10,16.10
2014,09,15,12,11,16.20
2014,09,15,12,12,16.30
2014,09,15,12,13,16.40
2014,09,15,12,14,16.40
2014,09,15,12,15,16.40
2014,09,15,12,16,16.60
2014,09,15,12,17,16.60
2014,09,15,12,18,16.40
2014,09,15,12,19,16.40
2014,09,15,12,20,16.40
2014,09,15,12,21,16.50
2014,09,15,12,22,16.60
2014,09,15,12,23,16.70
2014,09,15,12,24,16.70
2014,09,15,12,25,16.80
2014,09,15,12,26,16.80
2014,09,15,12,27,16.90
2014,09,15,12,28,17.00
2014,09,15,12,29,16.90
2014,09,15,12,30,16.90
2014,09,15,12,31,16.70
2014,09,15,12,32,16.70
2014,09,15,12,33,16.70
2014,09,15,12,34,16.70
2014,09,15,12,35,16.70
2014,09,15,12,36,16.60
2014,09,15,12,37,16.40
2014,09,15,12,38,16.30
2014,09,15,12,39,16.10
2014,09,15,12,40,16.10
2014,09,15,12,41,16.00
2014,09,15,12,42,15.90
2014,09,15,12,43,16.00
2014,09,15,12,44,16.10
2014,09,15,12,45,16.20
2014,09,15,12,46,16.30
2014,09,15,12,47,16.20
2014,09,15,12,48,16.20
2014,09,15,12,49,16.20
2014,09,15,12,50,16.20
2014,09,15,12,51,16.30
2014,09,15,12,52,16.30
2014,09,15,12,53,16.20
2014,09,15,12,54,16.20
2014,09,15,12,55,16.20
2014,09,15,12,56,16.30
2014,09,15,12,57,16.30
2014,09,15,12,58,16.30
2014,09,15,12,59,16.50
2014,09,15,13,00,16.70
2014,09,15,13,01,16.80
2014,09,15,13,02,16.90
2014,09,15,13,03,17.00
2014,09,15,13,04,17.00
2014,09,15,13,05,16.90
2014,09,15,13,06,16.80
2014,09,15,13,07,16.80
2014,09,15,13,08,16.90
2014,09,15,13,09,17.00
2014,09,15,13,10,17.10
2014,09,15,13,11,17.30
2014,09,15,13,12,17.20
2014,09,15,13,13,17.10
2014,09,15,13,14,17.00
2014,09,15,13,15,16.90
2014,09,15,13,16,16.70
2014,09,15,13,17,16.70
2014,09,15,13,18,16.70
2014,09,15,13,19,16.80
2014,09,15,13,20,16.90
2014,09,15,13,21,17.00
2014,09,15,13,22,17.00
2014,09,15,13,23,17.10
2014,09,15,13,24,17.20
2014,09,15,13,25,17.30
2014,09,15,13,26,17.40
2014,09,15,13,27,17.50
2014,09,15,13,28,17.70
2014,09,15,13,29,17.80
2014,09,15,13,30,17.80
2014,09,15,13,31,17.70
2014,09,15,13,32,17.60
2014,09,15,13,33,17.60
2014,09,15,13,34,17.70
2014,09,15,13,35,17.60
2014,09,15,13,36,17.30
2014,09,15,13,37,17.10
2014,09,15,13,38,17.10
2014,09,15,13,39,17.10
2014,09,15,13,40,17.10
2014,09,15,13,41,17.10
2014,09,15,13,42,17.30
2014,09,15,13,43,17.30
2014,09,15,13,44,17.50
2014,09,15,13,45,17.70
2014,09,15,13,46,17.80
2014,09,15,13,47,17.90
2014,09,15,13,48,18.00
2014,09,15,13,49,18.10
2014,09,15,13,50,18.20
2014,09,15,13,51,18.20
2014,09,15,13,52,18.30
2014,09,15,13,53,18.30
2014,09,15,13,54,18.30
2014,09,15,13,55,18.40
2014,09,15,13,56,18.50
2014,09,15,13,57,18.50
2014,09,15,13,58,18.60
2014,09,15,13,59,18.70
2014,09,15,14,00,18.80
2014,09,15,14,01,18.90
2014,09,15,14,02,19.00
2014,09,15,14,03,19.20
2014,09,15,14,04,19.40
2014,09,15,14,05,19.60
2014,09,15,14,06,19.80
2014,09,15,14,07,19.80
2014,09,15,14,08,19.90
2014,09,15,14,09,20.00
2014,09,15,14,10,20.10
2014,09,15,14,11,20.20
2014,09,15,14,12,20.20
2014,09,15,14,13,20.30
2014,09,15,14,14,20.40
2014,09,15,14,15,20.40
2014,09,15,14,16,20.50
2014,09,15,14,17,20.60
2014,09,15,14,18,20.70
2014,09,15,14,19,20.80
2014,09,15,14,20,20.80
2014,09,15,14,21,20.90
2014,09,15,14,22,21.00
2014,09,15,14,23,21.10
2014,09,15,14,24,21.10
2014,09,15,14,25,21.20
2014,09,15,14,26,21.20
2014,09,15,14,27,21.10
2014,09,15,14,28,21.10
2014,09,15,14,29,21.10
2014,09,15,14,30,21.00
2014,09,15,14,31,21.00
2014,09,15,14,32,21.10
2014,09,15,14,33,21.10
2014,09,15,14,34,21.10
2014,09,15,14,35,21.30
2014,09,15,14,36,21.30
2014,09,15,14,37,21.30
2014,09,15,14,38,21.30
2014,09,15,14,39,21.30
2014,09,15,14,40,21.30
2014,09,15,14,41,21.30
2014,09,15,14,42,21.30
2014,09,15,14,43,21.40
2014,09,15,14,44,21.30
2014,09,15,14,45,21.30
2014,09,15,14,46,21.30
2014,09,15,14,47,21.30
2014,09,15,14,48,21.30
2014,09,15,14,49,21.20
2014,09,15,14,50,21.10
2014,09,15,14,51,20.90
2014,09,15,14,52,20.90
2014,09,15,14,53,20.90
2014,09,15,14,54,20.80
2014,09,15,14,55,20.70
2014,09,15,14,56,20.50
2014,09,15,14,57,20.40
2014,09,15,14,58,20.30
2014,09,15,14,59,20.30
2014,09,15,15,00,20.30
2014,09,15,15,01,20.40
2014,09,15,15,02,20.40
2014,09,15,15,03,20.40
2014,09,15,15,04,20.40
2014,09,15,15,05,20.50
2014,09,15,15,06,20.50
2014,09,15,15,07,20.50
2014,09,15,15,08,20.50
2014,09,15,15,09,20.50
2014,09,15,15,10,20.50
2014,09,15,15,11,20.40
2014,09,15,15,12,20.20
2014,09,15,15,13,20.00
2014,09,15,15,14,19.90
2014,09,15,15,15,19.90
2014,09,15,15,16,19.90
2014,09,15,15,17,20.10
2014,09,15,15,18,20.20
2014,09,15,15,19,20.20
2014,09,15,15,20,20.10
2014,09,15,15,21,20.00
2014,09,15,15,22,19.90
2014,09,15,15,23,19.80
2014,09,15,15,24,19.80
2014,09,15,15,25,19.80
2014,09,15,15,26,19.90
2014,09,15,15,27,19.90
2014,09,15,15,28,19.90
2014,09,15,15,29,19.90
2014,09,15,15,30,19.80
2014,09,15,15,31,19.90
2014,09,15,15,32,19.90
2014,09,15,15,33,19.90
2014,09,15,15,34,19.90
2014,09,15,15,35,19.70
2014,09,15,15,36,19.60
2014,09,15,15,37,19.60
2014,09,15,15,38,19.60
2014,09,15,15,39,19.60
2014,09,15,15,40,19.60
2014,09,15,15,41,19.70
2014,09,15,15,42,19.70
2014,09,15,15,43,19.80
2014,09,15,15,44,19.70
2014,09,15,15,45,19.80
2014,09,15,15,46,19.80
2014,09,15,15,47,19.90
2014,09,15,15,48,19.90
2014,09,15,15,49,19.90
2014,09,15,15,50,19.90
2014,09,15,15,51,19.90
2014,09,15,15,52,19.90
2014,09,15,15,53,19.90
2014,09,15,15,54,19.70
2014,09,15,15,55,19.70
2014,09,15,15,56,19.60
2014,09,15,15,57,19.60
2014,09,15,15,58,19.50
2014,09,15,15,59,19.40
2014,09,15,16,00,19.40
2014,09,15,16,01,19.40
2014,09,15,16,02,19.50
2014,09,15,16,03,19.50
2014,09,15,16,04,19.50
2014,09,15,16,05,19.50
2014,09,15,16,06,19.60
2014,09,15,16,07,19.70
2014,09,15,16,08,19.70
2014,09,15,16,09,19.70
2014,09,15,16,10,19.80
2014,09,15,16,11,19.90
2014,09,15,16,12,19.90
2014,09,15,16,13,20.00
2014,09,15,16,14,20.10
2014,09,15,16,15,20.10
2014,09,15,16,16,20.10
2014,09,15,16,17,20.10
2014,09,15,16,18,20.00
2014,09,15,16,19,20.00
2014,09,15,16,20,20.10
2014,09,15,16,21,20.10
2014,09,15,16,22,20.10
2014,09,15,16,23,20.20
2014,09,15,16,24,20.20
2014,09,15,16,25,20.40
2014,09,15,16,26,20.50
2014,09,15,16,27,20.60
2014,09,15,16,28,20.70
2014,09,15,16,29,20.70
2014,09,15,16,30,20.70
2014,09,15,16,31,20.80
2014,09,15,16,32,20.80
2014,09,15,16,33,20.80
2014,09,15,16,34,20.80
2014,09,15,16,35,20.90
2014,09,15,16,36,21.00
2014,09,15,16,37,21.00
2014,09,15,16,38,21.10
2014,09,15,16,39,21.10
2014,09,15,16,40,21.20
2014,09,15,16,41,21.20
2014,09,15,16,42,21.30
2014,09,15,16,43,21.30
2014,09,15,16,44,21.40
2014,09,15,16,45,21.40
2014,09,15,16,46,21.60
2014,09,15,16,47,21.60
2014,09,15,16,48,21.60
2014,09,15,16,49,21.60
2014,09,15,16,50,21.60
2014,09,15,16,51,21.60
2014,09,15,16,52,21.60
2014,09,15,16,53,21.60
2014,09,15,16,54,21.60
2014,09,15,16,55,21.60
2014,09,15,16,56,21.60
2014,09,15,16,57,21.60
2014,09,15,16,58,21.70
2014,09,15,16,59,21.70
2014,09,15,17,00,21.80
2014,09,15,17,01,21.80
2014,09,15,17,02,21.80
2014,09,15,17,03,21.80
2014,09,15,17,04,21.90
2014,09,15,17,05,21.90
2014,09,15,17,06,21.90
2014,09,15,17,07,22.00
2014,09,15,17,08,22.00
2014,09,15,17,09,22.00
2014,09,15,17,10,22.10
2014,09,15,17,11,22.10
2014,09,15,17,12,22.20
2014,09,15,17,13,22.30
2014,09,15,17,14,22.30
2014,09,15,17,15,22.20
2014,09,15,17,16,22.10
2014,09,15,17,17,22.10
2014,09,15,17,18,22.00
2014,09,15,17,19,22.00
2014,09,15,17,20,21.90
2014,09,15,17,21,21.90
2014,09,15,17,22,21.80
2014,09,15,17,23,21.80
2014,09,15,17,24,21.90
2014,09,15,17,25,21.90
2014,09,15,17,26,21.90
2014,09,15,17,27,21.90
2014,09,15,17,28,21.80
2014,09,15,17,29,21.80
2014,09,15,17,30,21.90
2014,09,15,17,31,21.90
2014,09,15,17,32,21.90
2014,09,15,17,33,21.90
2014,09,15,17,34,21.90
2014,09,15,17,35,21.90
2014,09,15,17,36,21.90
2014,09,15,17,37,21.90
2014,09,15,17,38,21.90
2014,09,15,17,39,21.90
2014,09,15,17,40,21.90
2014,09,15,17,41,21.90
2014,09,15,17,42,21.90
2014,09,15,17,43,21.90
2014,09,15,17,44,21.90
2014,09,15,17,45,21.90
2014,09,15,17,46,21.90
2014,09,15,17,47,22.00
2014,09,15,17,48,22.00
2014,09,15,17,49,22.00
2014,09,15,17,50,22.00
2014,09,15,17,51,22.10
2014,09,15,17,52,22.10
2014,09,15,17,53,22.10
2014,09,15,17,54,22.20
2014,09,15,17,55,22.20
2014,09,15,17,56,22.20
2014,09,15,17,57,22.10
2014,09,15,17,58,22.20
2014,09,15,17,59,22.10
2014,09,15,18,00,22.10
2014,09,15,18,01,22.10
2014,09,15,18,02,22.10
2014,09,15,18,03,22.10
2014,09,15,18,04,22.10
2014,09,15,18,05,22.20
2014,09,15,18,06,22.30
2014,09,15,18,07,22.30
2014,09,15,18,08,22.40
2014,09,15,18,09,22.50
2014,09,15,18,10,22.60
2014,09,15,18,11,22.70
2014,09,15,18,12,22.70
2014,09,15,18,13,22.80
2014,09,15,18,14,22.80
2014,09,15,18,15,22.80
2014,09,15,18,16,22.80
2014,09,15,18,17,22.80
2014,09,15,18,18,22.80
2014,09,15,18,19,22.80
2014,09,15,18,20,22.80
2014,09,15,18,21,22.80
2014,09,15,18,22,22.80
2014,09,15,18,23,22.70
2014,09,15,18,24,22.70
2014,09,15,18,25,22.60
2014,09,15,18,26,22.60
2014,09,15,18,27,22.60
2014,09,15,18,28,22.60
2014,09,15,18,29,22.50
2014,09,15,18,30,22.50
2014,09,15,18,31,22.50
2014,09,15,18,32,22.40
2014,09,15,18,33,22.40
2014,09,15,18,34,22.40
2014,09,15,18,35,22.30
2014,09,15,18,36,22.30
2014,09,15,18,37,22.30
2014,09,15,18,38,22.30
2014,09,15,18,39,22.20
2014,09,15,18,40,22.20
2014,09,15,18,41,22.10
2014,09,15,18,42,22.00
2014,09,15,18,43,22.00
2014,09,15,18,44,21.90
2014,09,15,18,45,21.80
2014,09,15,18,46,21.80
2014,09,15,18,47,21.70
2014,09,15,18,48,21.60
2014,09,15,18,49,21.60
2014,09,15,18,50,21.40
2014,09,15,18,51,21.40
2014,09,15,18,52,21.30
2014,09,15,18,53,21.20
2014,09,15,18,54,21.10
2014,09,15,18,55,21.00
2014,09,15,18,56,20.90
2014,09,15,18,57,20.80
2014,09,15,18,58,20.70
2014,09,15,18,59,20.60
2014,09,15,19,00,20.50
2014,09,15,19,01,20.40
2014,09,15,19,02,20.30
2014,09,15,19,03,20.30
2014,09,15,19,04,20.20
2014,09,15,19,05,20.20
2014,09,15,19,06,20.10
2014,09,15,19,07,20.00
2014,09,15,19,08,19.90
2014,09,15,19,09,19.90
2014,09,15,19,10,19.80
2014,09,15,19,11,19.70
2014,09,15,19,12,19.60
2014,09,15,19,13,19.50
2014,09,15,19,14,19.50
2014,09,15,19,15,19.40
2014,09,15,19,16,19.30
2014,09,15,19,17,19.30
2014,09,15,19,18,19.20
2014,09,15,19,19,19.20
2014,09,15,19,20,19.20
2014,09,15,19,21,19.20
2014,09,15,19,22,19.20
2014,09,15,19,23,19.20
2014,09,15,19,24,19.20
2014,09,15,19,25,19.20
2014,09,15,19,26,19.20
2014,09,15,19,27,19.20
